Flag for U.S.A. Weather past 2 weeks in Atlantic City, New Jersey, U.S.A.

Now
73 °F

Sunny.


Feels Like: 77 °F
Forecast: 58 / 70 °F
Wind: 6 mph from North

Location: Atlantic City International Airport

Current Time: Sep 17, 2014 at 12:15:10 PM

Latest Report: Sep 17, 2014 at 11:54 AM


Visibility: 10 mi

Pressure: 30.03 "Hg

Humidity: 40%

Dew point: 47 °F

Location of Atlantic CityLocation

Historic Weather in Atlantic City — Graph

°F

Atlantic City temperature yesterday

Maximum temperature yesterday: 75 °F (at 1:54 PM)
Minimum temperature yesterday: 54 °F (at 12:54 AM)
Average temperature yesterday: 64 °F

Past Weeks' High & Low Weather Summary

 TemperatureHumidityPressure
High91 °F (Sep 2, 2:54 PM)97% (Sep 5, 5:54 AM)30.28 "Hg (Sep 5, 5:54 AM)
Low47 °F (Sep 15, 6:54 AM)41% (Sep 17, 10:54 AM)29.85 "Hg (Sep 11, 3:54 PM)
Average70 °F79%30.08 "Hg
* Reported Sep 2 10:54 AM — Sep 17 10:54 AM, Atlantic City, Weather by CustomWeather, © 2014

Note: Actual official high and low records may vary slightly from our data, if they occured in-between our weather recording intervals... More about our weather records

Advertising

Atlantic City weather history for previous 24 hours

 ConditionsComfort  
Time TempWeatherWind HumidityBarometerVisibility
10:54 AM
Sep 17
70 °FSunny.5 mph41%30.04 "Hg10 mi
9:54 AM68 °FSunny.6 mph61%30.05 "Hg10 mi
8:54 AM63 °FPassing clouds.7 mph75%30.06 "Hg10 mi
7:54 AM56 °FPartly sunny.5 mph87%30.05 "Hg10 mi
6:54 AM50 °FClear.No wind93%30.03 "Hg10 mi
5:54 AM50 °FClear.3 mph93%30.02 "Hg10 mi
4:54 AM51 °FClear.5 mph92%30.02 "Hg10 mi
3:54 AM52 °FClear.3 mph93%30.01 "Hg10 mi
2:54 AM53 °FClear.6 mph93%30.01 "Hg10 mi
1:54 AM55 °FClear.3 mph93%30.03 "Hg10 mi
12:54 AM56 °FClear.6 mph93%30.02 "Hg10 mi
11:54 PM
Sep 16
56 °FPassing clouds.6 mph97%30.02 "Hg9 mi
10:54 PM60 °FClear.No wind93%30.02 "Hg10 mi
9:54 PM60 °FPassing clouds.No wind93%30.01 "Hg10 mi
8:54 PM61 °FMostly cloudy.No wind90%30.00 "Hg10 mi
7:54 PM62 °FPassing clouds.3 mph80%29.99 "Hg10 mi
6:54 PM67 °FPartly sunny.5 mph73%29.98 "Hg10 mi
5:54 PM71 °FPartly sunny.6 mph59%29.97 "Hg10 mi
4:54 PM74 °FScattered clouds.13 mph57%29.96 "Hg10 mi
3:54 PM73 °FScattered clouds.13 mph55%29.95 "Hg10 mi
2:54 PM73 °FPartly sunny.15 mph53%29.96 "Hg10 mi
1:54 PM75 °FSunny.16 mph48%29.96 "Hg10 mi
12:54 PM74 °FPassing clouds.13 mph60%29.96 "Hg10 mi
Weather by CustomWeather, © 2014

See weather overviewHow to use our weather pages